Date_and_time,latitude,longitude,wind_speed,RelWindDirFrom,WindDirFrom,air_pressure,air_temperature,relative_humidity,Temp,platform_speed_wrt_ground,air_pressure_at_mean_sea_level,platform_orientation
2019-09-03 23:40,50.630455,-96.9807833333333,8.2,10.7,2,989.33,15.2,59,16.56,0.0,1015.78,0.0
2019-09-03 23:50,50.630455,-96.9807816666667,6.5,8.7,357,989.38,15.2,59,16.56,0.0,1015.81,0.0
2019-09-04 00:00,50.630455,-96.9807783333333,6.0,8.0,348,989.40,15.4,57,16.56,0.0,1015.84,270.0
2019-09-04 00:10,50.630455,-96.9807783333333,8.0,10.9,4,989.43,15.4,58,16.56,0.0,1015.87,270.0
2019-09-04 00:20,50.6304533333333,-96.9807783333333,7.2,9.4,357,989.51,15.4,57,16.56,0.0,1015.94,270.0
2019-09-04 00:30,50.6304533333333,-96.9807766666667,4.7,8.0,348,989.61,15.6,56,16.55,0.0,1016.03,270.0
2019-09-04 00:40,50.6304533333333,-96.9807766666667,3.1,4.8,325,989.81,15.5,54,16.56,0.0,1016.23,270.0
2019-09-04 00:50,50.630455,-96.9807766666667,2.8,4.3,309,989.84,15.1,54,16.56,0.0,1016.29,270.0
2019-09-04 01:00,50.630455,-96.9807766666667,2.0,3.0,289,989.86,14.6,56,16.56,0.0,1016.33,60.8
2019-09-04 01:10,50.630455,-96.9807766666667,1.6,2.6,286,989.90,14.2,57,16.56,0.0,1016.39,60.8
2019-09-04 01:20,50.630435,-96.9807916666667,1.5,2.1,278,989.87,13.8,59,16.56,0.0,1016.36,60.8
2019-09-04 01:30,50.6304583333333,-96.9807733333333,2.1,2.4,266,989.91,13.6,60,16.55,0.0,1016.42,60.8
2019-09-04 01:40,50.6304533333333,-96.9807733333333,2.1,2.5,264,989.91,13.3,60,16.54,0.0,1016.43,60.8
2019-09-04 01:50,50.6304583333333,-96.98077,3.0,4.1,251,990.00,12.8,63,16.53,0.0,1016.54,60.8
2019-09-04 02:00,50.6304583333333,-96.9807716666667,3.8,4.5,252,990.09,12.5,64,16.53,0.0,1016.64,60.8
2019-09-04 02:10,50.6304583333333,-96.9807716666667,3.9,4.6,245,990.20,12.2,66,16.52,0.0,1016.77,60.8
2019-09-04 02:20,50.630495,-96.9808033333333,4.8,5.9,239,990.30,12.2,64,16.52,0.0,1016.87,60.8
2019-09-04 02:30,50.6304666666667,-96.9807683333333,5.5,6.5,236,990.42,11.9,66,16.52,0.0,1017.00,60.8
2019-09-04 02:40,50.63047,-96.9807733333333,5.2,6.5,234,990.44,11.4,69,16.52,0.0,1017.07,60.8
2019-09-04 02:50,50.63047,-96.9807766666667,4.7,6.8,231,990.44,11.0,71,16.52,0.0,1017.10,60.8
2019-09-04 03:00,50.63047,-96.980775,5.4,7.3,241,990.46,11.1,69,16.52,0.0,1017.14,360.0
2019-09-04 03:10,50.63047,-96.9807733333333,5.9,7.2,236,990.50,10.9,70,16.53,0.0,1017.21,360.0
2019-09-04 03:20,50.6304683333333,-96.9807716666667,5.6,7.5,230,990.48,10.5,73,16.53,0.0,1017.23,360.0
2019-09-04 03:30,50.6304666666667,-96.9807716666667,5.2,6.3,233,990.58,10.3,74,16.52,0.0,1017.35,360.0
2019-09-04 03:40,50.6304666666667,-96.9807716666667,5.3,6.5,225,990.60,10.0,76,16.52,0.0,1017.40,360.0
2019-09-04 03:50,50.63045,-96.9807683333333,5.1,7.0,234,990.72,9.7,78,16.52,0.0,1017.56,360.0
2019-09-04 04:00,50.6304733333333,-96.98078,5.0,6.8,233,990.85,9.3,80,16.52,0.0,1017.72,345.5
2019-09-04 04:10,50.6304733333333,-96.9807766666667,5.7,6.9,232,990.92,9.2,80,16.52,0.0,1017.80,345.5
2019-09-04 04:20,50.6304616666667,-96.98078,5.5,6.8,231,990.93,9.1,81,16.51,0.0,1017.83,345.5
2019-09-04 04:30,50.6304533333333,-96.980785,6.0,8.3,225,990.99,9.0,82,16.50,0.0,1017.92,345.5
2019-09-04 04:40,50.63046,-96.980785,5.0,6.7,230,991.01,8.8,83,16.50,0.0,1017.97,345.5
2019-09-04 04:50,50.63046,-96.980785,5.7,7.4,235,991.09,8.7,84,16.49,0.0,1018.05,345.5
2019-09-04 05:00,50.6304633333333,-96.9807866666667,5.6,7.4,241,991.02,8.7,85,16.48,0.0,1017.99,293.6
2019-09-04 05:10,50.6304633333333,-96.980785,5.9,7.5,251,990.95,8.7,86,16.47,0.0,1017.94,293.6
2019-09-04 05:20,50.6304683333333,-96.9807983333333,5.8,7.4,255,990.99,8.8,87,16.46,0.0,1017.99,293.6
2019-09-04 05:30,50.6304716666667,-96.9807566666667,6.1,8.7,248,991.00,8.7,88,16.45,0.0,1018.02,293.6
2019-09-04 05:40,50.6304583333333,-96.9807833333333,5.6,7.4,245,991.03,8.5,89,16.43,0.0,1018.07,293.6
2019-09-04 05:50,50.6304583333333,-96.9807816666667,5.9,7.1,240,991.04,8.4,90,16.42,0.0,1018.11,293.6
2019-09-04 06:00,50.630455,-96.9807783333333,5.6,6.8,237,991.05,8.5,90,16.41,0.0,1018.12,360.0
2019-09-04 06:10,50.6304533333333,-96.980775,5.7,7.4,235,991.02,8.6,90,16.41,0.0,1018.08,360.0
2019-09-04 06:20,50.6304466666667,-96.9807583333333,5.4,6.5,229,990.90,8.6,91,16.40,0.0,1017.97,360.0
2019-09-04 06:30,50.63046,-96.9807583333333,5.8,6.7,226,990.84,8.6,91,16.39,0.0,1017.91,360.0
2019-09-04 06:40,50.6304566666667,-96.9807666666667,5.0,6.3,223,990.78,8.9,91,16.38,0.0,1017.84,360.0
2019-09-04 06:50,50.6304583333333,-96.980775,4.7,6.2,222,990.71,9.1,92,16.37,0.0,1017.76,360.0
2019-09-04 07:00,50.6304583333333,-96.980775,4.9,6.4,219,990.72,9.2,93,16.37,0.0,1017.77,147.5
2019-09-04 07:10,50.63046,-96.9807766666667,4.7,5.9,222,990.85,9.1,93,16.37,0.0,1017.90,147.5
2019-09-04 07:20,50.6304583333333,-96.980765,4.8,6.2,223,990.88,8.8,95,16.37,0.0,1017.95,147.5
2019-09-04 07:30,50.63046,-96.9807666666667,4.7,6.2,219,990.86,8.6,98,16.37,0.0,1017.95,147.5
2019-09-04 07:40,50.6304633333333,-96.9807616666667,5.1,7.2,213,990.84,8.7,99,16.37,0.0,1017.93,147.5
2019-09-04 07:50,50.63048,-96.9808016666667,6.6,8.3,208,990.68,8.5,99,16.37,0.0,1017.77,147.5
2019-09-04 08:00,50.6304633333333,-96.9807633333333,6.4,7.8,207,990.50,8.5,99,16.36,0.0,1017.58,90.0
2019-09-04 08:10,50.6304633333333,-96.9807783333333,6.1,7.6,207,990.40,8.6,99,16.35,0.0,1017.48,90.0
2019-09-04 08:20,50.63046,-96.9807683333333,6.3,8.1,205,990.27,8.8,99,16.34,0.0,1017.33,90.0
2019-09-04 08:30,50.630465,-96.980775,7.1,9.2,205,990.14,8.9,99,16.34,0.0,1017.18,90.0
2019-09-04 08:40,50.630465,-96.980775,7.8,9.8,205,990.09,8.9,99,16.34,0.0,1017.11,90.0
2019-09-04 08:50,50.630465,-96.9807716666667,8.0,10.2,209,990.12,8.9,99,16.33,0.0,1017.14,90.0
2019-09-04 09:00,50.630465,-96.98077,6.8,9.6,218,990.33,9.0,99,16.31,0.0,1017.36,31.1
2019-09-04 09:10,50.6304616666667,-96.980735,5.8,7.8,230,990.53,8.7,99,16.29,0.0,1017.59,31.1
2019-09-04 09:20,50.6304516666667,-96.9807416666667,6.1,8.1,217,990.45,8.4,99,16.28,0.0,1017.54,31.1
2019-09-04 09:30,50.630455,-96.9807483333333,6.0,8.0,211,990.42,8.4,99,16.27,0.0,1017.50,31.1
2019-09-04 09:40,50.6304566666667,-96.980755,6.5,8.6,213,990.49,8.5,99,16.27,0.0,1017.58,31.1
2019-09-04 09:50,50.6304583333333,-96.98076,6.5,9.0,211,990.53,8.6,99,16.27,0.0,1017.61,31.1
2019-09-04 10:00,50.6304583333333,-96.9807633333333,6.9,9.4,206,990.48,8.6,99,16.26,0.0,1017.55,90.0
2019-09-04 10:10,50.6304583333333,-96.980765,7.8,10.2,199,990.34,8.9,99,16.24,0.0,1017.39,90.0
2019-09-04 10:20,50.6304566666667,-96.980765,8.5,11.0,199,990.19,9.3,98,16.23,0.0,1017.20,90.0
2019-09-04 10:30,50.6304566666667,-96.9807633333333,9.5,12.3,194,990.03,9.3,98,16.20,0.0,1017.04,90.0
2019-09-04 10:40,50.6304566666667,-96.980765,9.5,12.2,202,990.03,9.1,98,16.19,0.0,1017.06,90.0
2019-09-04 10:50,50.6304566666667,-96.980765,8.2,12.0,210,990.27,9.1,98,16.17,0.0,1017.30,90.0
2019-09-04 11:00,50.6304566666667,-96.980765,7.7,11.8,214,990.45,9.1,98,16.17,0.0,1017.49,360.0
2019-09-04 11:10,50.6304733333333,-96.9807783333333,9.6,12.0,205,990.29,8.6,99,16.15,0.0,1017.37,360.0
2019-09-04 11:20,50.6304516666667,-96.9807666666667,9.4,11.7,202,990.17,8.1,99,16.14,0.0,1017.27,360.0
2019-09-04 11:30,50.63045,-96.98077,8.7,11.2,204,990.16,8.0,99,16.13,0.0,1017.26,360.0
2019-09-04 11:40,50.63045,-96.9807716666667,7.9,10.2,205,990.20,8.0,99,16.11,0.0,1017.30,360.0
2019-09-04 11:50,50.630455,-96.9807716666667,7.7,9.9,204,990.21,8.0,99,16.09,0.0,1017.31,360.0
2019-09-04 12:00,50.630455,-96.9807716666667,7.6,9.7,201,990.19,8.1,99,16.08,0.0,1017.27,360.0
2019-09-04 12:10,50.630455,-96.9807716666667,8.3,10.4,200,990.13,8.0,99,16.06,0.0,1017.19,360.0
2019-09-04 12:20,50.6304533333333,-96.98077,9.1,12.6,199,990.09,8.1,99,16.05,0.0,1017.14,360.0
2019-09-04 12:30,50.6304516666667,-96.98077,8.3,11.2,199,990.13,8.2,99,16.04,0.0,1017.19,360.0
2019-09-04 12:40,50.6304483333333,-96.9807883333333,6.9,9.1,195,990.20,8.3,99,16.03,0.0,1017.26,360.0
2019-09-04 12:50,50.6304366666667,-96.9807783333333,7.6,9.7,191,990.14,8.4,99,16.02,0.0,1017.19,360.0
2019-09-04 13:00,50.6304316666667,-96.980785,8.0,11.5,194,990.01,8.6,99,16.01,0.0,1017.08,207.2
2019-09-04 13:10,50.6304283333333,-96.9807833333333,8.2,10.6,192,989.87,8.9,98,16.01,0.0,1016.94,207.2
2019-09-04 13:20,50.630435,-96.9807833333333,9.1,12.1,188,989.76,9.3,97,16.00,0.0,1016.81,207.2
2019-09-04 13:30,50.6304366666667,-96.9807916666667,9.7,12.8,186,989.72,9.4,96,15.99,0.0,1016.76,207.2
2019-09-04 13:40,50.6304416666667,-96.9807816666667,9.5,13.6,189,989.80,9.7,95,15.98,0.0,1016.83,207.2
2019-09-04 13:50,50.63044,-96.98078,10.9,15.3,186,989.60,10.1,93,15.97,0.0,1016.60,207.2
2019-09-04 14:00,50.63044,-96.9807766666667,11.1,14.0,186,989.56,10.6,92,15.96,0.0,1016.54,221.3
2019-09-04 14:10,50.6304416666667,-96.9807783333333,11.2,14.4,188,989.44,10.9,90,15.96,0.0,1016.40,221.3
2019-09-04 14:20,50.6304416666667,-96.9807766666667,11.5,15.5,189,989.44,11.4,89,15.97,0.0,1016.38,221.3
2019-09-04 14:30,50.6304416666667,-96.9807766666667,12.5,17.2,183,989.19,11.7,89,15.97,0.0,1016.10,221.3
2019-09-04 14:40,50.6304433333333,-96.9807766666667,12.7,16.6,186,989.00,12.1,88,15.96,0.0,1015.87,221.3
2019-09-04 14:50,50.6304516666667,-96.98079,12.3,17.3,189,989.00,12.5,85,15.96,0.0,1015.84,221.3
2019-09-04 15:00,50.6304433333333,-96.98077,10.8,14.8,195,989.24,13.1,82,15.96,0.0,1016.05,165.5
2019-09-04 15:10,50.63044,-96.9807683333333,10.7,15.7,197,989.27,13.8,78,15.97,0.0,1016.03,165.5
2019-09-04 15:20,50.63046,-96.98078,10.3,14.3,193,989.27,14.2,76,15.97,0.0,1016.01,165.5
2019-09-04 15:30,50.630445,-96.98078,10.0,13.4,185,989.30,14.4,76,15.98,0.0,1016.01,165.5
2019-09-04 15:40,50.6304516666667,-96.98078,9.4,13.7,193,989.43,14.8,74,16.00,0.0,1016.11,165.5
2019-09-04 15:50,50.630455,-96.9807866666667,9.1,12.3,194,989.43,15.1,74,16.02,0.0,1016.07,165.5
2019-09-04 16:00,50.6304566666667,-96.9807833333333,9.3,13.0,187,989.31,15.3,73,16.03,0.0,1015.92,25.7
2019-09-04 16:10,50.6304583333333,-96.980785,11.3,15.0,193,989.17,15.4,71,16.05,0.0,1015.75,25.7
2019-09-04 16:20,50.6304583333333,-96.980785,10.6,14.6,197,989.14,15.6,70,16.07,0.0,1015.70,25.7
2019-09-04 16:30,50.6304583333333,-96.980785,11.4,16.3,193,988.96,15.6,71,16.09,0.0,1015.49,25.7
2019-09-04 16:40,50.63043,-96.9807833333333,11.2,15.9,199,988.96,16.0,68,16.10,0.0,1015.45,25.7
2019-09-04 16:50,50.63044,-96.9807933333333,10.7,14.2,205,989.03,16.3,67,16.10,0.0,1015.49,25.7
2019-09-04 17:00,50.6304416666667,-96.98079,10.7,13.9,200,989.00,16.6,66,16.12,0.0,1015.41,270.0
2019-09-04 17:10,50.6304433333333,-96.980785,11.6,16.3,197,988.91,16.9,65,16.13,0.0,1015.28,270.0
2019-09-04 17:20,50.6304483333333,-96.9807816666667,12.4,19.3,203,988.85,17.6,62,16.14,0.0,1015.18,270.0
2019-09-04 17:30,50.6304533333333,-96.9807833333333,14.2,19.0,210,988.86,18.2,59,16.16,0.0,1015.15,270.0
2019-09-04 17:40,50.63045,-96.9807683333333,14.7,20.9,208,988.82,18.6,58,16.21,0.0,1015.07,270.0
2019-09-04 17:50,50.6304483333333,-96.9807816666667,14.8,19.5,201,988.67,18.7,58,16.24,0.0,1014.90,270.0
2019-09-04 18:00,50.6304516666667,-96.980785,13.9,18.8,202,988.65,19.0,57,16.30,0.0,1014.86,317.2
2019-09-04 18:10,50.6304533333333,-96.980785,14.0,21.2,211,988.64,19.5,55,16.36,0.0,1014.82,317.2
2019-09-04 18:20,50.630445,-96.98079,14.4,19.9,207,988.53,19.7,54,16.39,0.0,1014.70,317.2
2019-09-04 18:30,50.6304333333333,-96.98079,13.8,19.5,213,988.48,19.9,53,16.42,0.0,1014.62,317.2
2019-09-04 18:40,50.6304416666667,-96.9807933333333,13.9,22.8,210,988.48,20.0,53,16.45,0.0,1014.60,317.2
2019-09-04 18:50,50.6304516666667,-96.9807616666667,14.2,20.2,209,988.48,20.1,52,16.48,0.0,1014.59,317.2
2019-09-04 19:00,50.6304483333333,-96.9807716666667,12.2,17.5,203,988.34,20.5,51,16.50,0.0,1014.40,119.2
2019-09-04 19:10,50.6304533333333,-96.980775,13.5,17.3,204,988.24,20.9,50,16.52,0.0,1014.26,119.2
2019-09-04 19:20,50.630455,-96.9807766666667,14.2,19.3,207,988.16,21.2,48,16.54,0.0,1014.14,119.2
2019-09-04 19:30,50.6304533333333,-96.9807783333333,11.7,18.0,214,988.16,21.7,46,16.58,0.0,1014.09,119.2
2019-09-04 19:40,50.6304583333333,-96.98078,11.0,15.8,216,988.07,22.1,44,16.61,0.0,1013.98,119.2
2019-09-04 19:50,50.6304566666667,-96.9807783333333,11.2,15.7,234,988.07,22.5,42,16.63,0.0,1013.94,119.2
2019-09-04 20:00,50.6304583333333,-96.9807766666667,11.0,15.2,207,987.86,22.3,43,16.66,0.0,1013.72,31.1
2019-09-04 20:10,50.63046,-96.980775,10.2,15.4,214,987.80,22.3,44,16.70,0.0,1013.65,31.1
2019-09-04 20:20,50.63046,-96.980775,10.3,13.3,210,987.73,22.6,43,16.75,0.0,1013.56,31.1
2019-09-04 20:30,50.6304533333333,-96.9807833333333,9.4,13.8,216,987.68,22.8,42,16.79,0.0,1013.49,31.1
2019-09-04 20:40,50.630455,-96.9807733333333,9.4,14.2,216,987.56,22.9,41,16.84,0.0,1013.35,31.1
2019-09-04 20:50,50.6304533333333,-96.98077,10.3,15.1,206,987.46,22.8,42,16.87,0.0,1013.24,31.1
2019-09-04 21:00,50.6304516666667,-96.9807683333333,9.2,14.8,214,987.41,23.0,42,16.91,0.0,1013.16,90.0
2019-09-04 21:10,50.6304533333333,-96.9807716666667,8.2,13.4,210,987.33,22.8,42,16.95,0.0,1013.07,90.0
2019-09-04 21:20,50.6304616666667,-96.980785,8.8,13.3,212,987.27,22.8,42,16.97,0.0,1013.00,90.0
2019-09-04 21:30,50.6304566666667,-96.980785,7.5,12.5,216,987.23,22.9,42,17.00,0.0,1012.93,90.0
2019-09-04 21:40,50.6304533333333,-96.9807933333333,9.2,13.1,203,987.12,22.9,41,17.02,0.0,1012.81,90.0
2019-09-04 21:50,50.630455,-96.98079,7.4,12.3,206,987.09,22.8,41,17.00,0.0,1012.78,90.0
2019-09-04 22:00,50.6304533333333,-96.98079,6.7,12.0,213,987.01,23.1,40,17.02,0.0,1012.69,291.5
2019-09-04 22:10,50.6304516666667,-96.9807866666667,7.5,10.7,209,986.88,23.3,39,17.01,0.0,1012.54,291.5
2019-09-04 22:20,50.6304516666667,-96.9807866666667,6.6,9.5,201,986.81,23.1,40,17.06,0.0,1012.46,291.5
2019-09-04 22:30,50.6304516666667,-96.9807883333333,4.9,7.0,216,986.80,23.5,38,17.10,0.0,1012.42,291.5
2019-09-04 22:40,50.630445,-96.98078,6.3,9.4,230,986.81,23.9,37,17.09,0.0,1012.43,291.5
2019-09-04 22:50,50.63042,-96.9807683333333,5.8,8.8,217,986.83,23.9,36,17.09,0.0,1012.44,291.5
2019-09-04 23:00,50.6304433333333,-96.9807866666667,5.9,9.0,208,986.82,23.8,37,17.11,0.0,1012.44,211.1
2019-09-04 23:10,50.630445,-96.98078,5.9,8.6,211,986.78,23.8,36,17.12,0.0,1012.41,211.1
2019-09-04 23:20,50.6304483333333,-96.9807816666667,4.7,6.4,211,986.75,23.9,35,17.11,0.0,1012.36,211.1
2019-09-04 23:30,50.63045,-96.9807816666667,3.0,5.3,217,986.69,23.4,36,17.16,0.0,1012.33,211.1
2019-09-04 23:40,50.6304516666667,-96.9807816666667,1.6,2.6,241,986.69,23.4,36,17.21,0.0,1012.33,211.1
